Regional Weather Roundup
Issued by NWS Austin/San Antonio, TX

Current Version | Previous Version | Text Only | Print | Product List | Glossary On
Versions: 1 2 3 4 5 6 7 8 9 10 11 12 13 14 15 16 17 18 19 20 21 22 23 24 25 26 27 28 29 30 31 32 33 34 35 36 37 38 39 40 41 42 43 44 45 46 47 48 49 50
000
ASUS44 KEWX 051411
RWREWX
SOUTH TEXAS REGIONAL WEATHER ROUNDUP
NATIONAL WEATHER SERVICE AUSTIN/SAN ANTONIO TX
900 AM CDT SUN JUL 05 2020

NOTE: "FAIR" INDICATED FEW OR NO CLOUDS BELOW 12,000 FEET WITH NO
SIGNIFICANT WEATHER AND/OR OBSTRUCTIONS TO VISIBILITY.

* - THESE STATIONS ARE NOT NWS OR FAA STATIONS...AND ARE NOT SUBJECT
    TO NWS AND FAA QUALITY CONTROL.

TXZ171-172-183>190-051500-
TEXAS HILL COUNTRY AND EDWARDS PLATEAU

CITY           SKY/WX    TMP DP  RH WIND       PRES   REMARKS
JUNCTION       MOSUNNY   82  71  69 VRB3      29.94S
*LLANO         SUNNY     84  70  61 SW8       29.93S
BURNET         SUNNY     82  67  60 SW12G17   29.93R
*HORSESHOE BAY SUNNY     86  64  48 SW6       29.91S
*LAGO VISTA    SUNNY     81  70  70 SW7       29.93R
*KERRVILLE     SUNNY     79  71  77 CALM      29.95R
*FREDERICKSBRG SUNNY     80  65  59 SW7       29.95R
*ROCKSPRINGS     N/A     79  64  61 S12       30.01S
*BOERNE        SUNNY     79  64  61 SW7       29.95R
*CASTROVILLE   SUNNY     82  71  71 MISG      29.93R
HONDO          SUNNY     80  71  74 MISG      29.92R
*UVALDE          N/A     80  72  76 E6        29.93R
DEL RIO        SUNNY     85  68  56 SE12      29.88R
*LAUGHLIN AFB  SUNNY     84  68  59 SE12      29.89R
*SPOFFORD      NOT AVBL
*EAGLE PASS    NOT AVBL
CARRIZO SPRGS  SUNNY     81  70  69 SE5       29.88R
$$

TXZ173-191>194-202-209-217>225-228-051500-
CENTRAL AND SOUTH CENTRAL TEXAS

CITY           SKY/WX    TMP DP  RH WIND       PRES   REMARKS
GEORGETOWN     SUNNY     82  71  69 SW9       29.91R
*TAYLOR        SUNNY     81  73  78 S12       29.90R
AUSTIN/BERGSTM MOSUNNY   79  75  87 S12       29.90R
AUSTIN/MABRY   SUNNY     81  71  71 VRB3      29.91R
*PFLUGERVILLE  SUNNY     81  73  78 SW8       29.91R
SAN MARCOS     MOSUNNY   80  75  84 SW10      29.92R
NEW BRAUNFELS  SUNNY     81  74  79 S12       29.91R
*RANDOLPH AFB  MOSUNNY   80  74  82 S7        29.92R
*SEGUIN        MOSUNNY   78  73  84 SW8       29.96R
SAN ANTONIO    MOSUNNY   82  71  69 S6        29.92R
STINSON FIELD  MOSUNNY   78  74  87 SW6       29.90R
*KELLY FIELD   SUNNY     81  73  77 SE5       29.90R
*PLEASANTON    CLOUDY    77  75  93 SE6       29.91R FOG
*KENEDY        PTSUNNY   80  73  79 S9        29.92S
*LA GRANGE     PTSUNNY   80  76  86 SW8       29.90R
*GIDDINGS      MOSUNNY   78  72  81 SW10      29.92R
*GONZALES      CLOUDY    81  75  81 S10       29.91S
$$

TXZ163>164-176>182-195>201-210>213-226-227-235-051500-
SOUTHEAST TEXAS

CITY           SKY/WX    TMP DP  RH WIND       PRES   REMARKS
COLLEGE STN    MOSUNNY   79  75  87 SW8       29.89S
*BRYAN         MOSUNNY   81  76  86 SW10      29.91R
*CALDWELL      MOSUNNY   80  76  87 SW9       29.91R
*CROCKETT      NOT AVBL
*BRENHAM       PTSUNNY   81  76  84 S9        29.91R
HUNTSVILLE     CLOUDY    80  72  76 SW8       29.91R
CONROE         CLOUDY    80  75  84 SW10      29.92R
HOUSTON BUSH   PTSUNNY   82  75  79 SW12      29.91R
HOUSTON HOBBY  MOSUNNY   83  76  79 SW15      29.90R HX  91
*HOUSTON SW AP MOSUNNY   79  78  98 SW6       29.92R
PEARLAND       MOSUNNY   83  75  77 SW10      29.92R HX  90
HOUSTON HOOKS  CLOUDY    80  74  81 SW9       29.90R
ELLINGTON FLD  MOSUNNY   82  77  83 SW7G15    29.90R HX  91
SUGAR LAND     MOSUNNY   80  77  90 SW9       29.91R
*HOUSTON EXEC  MOSUNNY   81  79  94 SW10      29.92S
*CLEVELAND MUN CLOUDY    79  76  90 W3        29.92R
*WHARTON       SUNNY     78  76  92 SW6       29.93R
*COLUMBUS      PTSUNNY   79  75  86 SW10      29.92R
*EAGLE LAKE    CLOUDY    82  77  86 SW12      29.92
$$

TXZ214>216-236>238-051500-
THE UPPER TEXAS COAST

CITY           SKY/WX    TMP DP  RH WIND       PRES   REMARKS
*ORANGE        MOSUNNY   83  77  81 W5        29.92R HX  93
PORT ARTHUR    MOSUNNY   82  78  88 W7        29.90R HX  91
GALVESTON      MOSUNNY   86  77  74 SW13      29.91R HX  97
ANGLETON       SUNNY     83  76  79 SW8       29.91R HX  91
*BAY CITY      SUNNY     84  79  85 SW7       29.91R HX  96
PALACIOS       PTSUNNY   84  75  74 SW13      29.91R HX  92
$$

TXZ229>234-239>247-051500-
TEXAS COASTAL BEND AND RIO GRANDE PLAINS

CITY           SKY/WX    TMP DP  RH WIND       PRES   REMARKS
VICTORIA       MOSUNNY   82  76  81 SW10      29.91R
*BEEVILLE      CLOUDY    82  78  89 S16       29.90R HX  91
ROCKPORT       PTSUNNY   83  75  77 S8G20     29.90R HX  90
*PORT ARANSAS  SUNNY     83  77  83 S14       29.91S HX  92
*PORT LAVACA   PTSUNNY   85  82  89 SW9       29.91R HX 102
*INGLESIDE     PTSUNNY   84  78  84 S15       29.90R HX  95
CORPUS CHRISTI PTSUNNY   81  78  91 S10       29.90R
CORPUS NAS     MOSUNNY   80  79  96 S16G23    29.90R
*ROBSTOWN      CLOUDY    81  78  92 S10G17    29.91R
ALICE          PTSUNNY   82  76  81 S16       29.89R
KINGSVILLE NAS CLOUDY   N/A N/A N/A S14       29.90R
COTULLA        SUNNY     81  74  79 SE7       29.88F
LAREDO         SUNNY     82  74  76 S9        29.88R
$$

TXZ248>255-051500-
DEEP SOUTH TEXAS

CITY           SKY/WX    TMP DP  RH WIND       PRES   REMARKS
BROWNSVILLE    SUNNY     83  77  82 S13       29.89S HX  92
PORT ISABEL    SUNNY     84  76  76 S14G21    29.89R HX  93
HARLINGEN      MOSUNNY   83  77  82 S16       29.89R HX  92
*HEBBRONVILLE  MOSUNNY   76  74  92 S8        29.91R
MCALLEN        SUNNY     83  73  72 SE15      29.89R
*WESLACO         N/A     82  74  77 MISG      29.89
FALFURRIAS     NOT AVBL
EDINBURG       SUNNY     82  73  73 S13G23    29.89R
*ZAPATA        SUNNY     84  75  73 S9        29.89R HX  92
$$

TXZ213>215-236>238-242>244-246-247-251-254-255-051500-
CMAN STATIONS

STATION/POSITION TIME  TEMP    WIND        PRES    WAVE
                       AIR SEA DIR/SP/G            HT/PER
                 (UTC) (F)     (DEG/KT/KT) (MB)    (FT/S)
SABINE PASS      1330   83 88  270/  3/  8 1014.0
NORTH JETTY/GLS  1330   85 83  240/ 15/ 18 1011.3
EAGLE POINT      1330   82 87  230/  9/ 11 1012.0
MORGANS POINT    1330   82 87  240/ 11/ 14 1012.3
PORT O`CONNOR    1330   82 87  210/ 11/ 13 1012.3
PORT ARANSAS     1400   81 82  180/ 15/ 16 1012.3
MALAQUITE BEACH  1324   80     160/ 12/ 14   N/A
BAFFIN BAY       1324   80 85  150/ 11/ 15 1012.5
PORT ISABEL      1324   83 83  180/ 10/ 14 1014.0
$$




USA.gov is the U.S. government's official web portal to all federal, state and local government web resources and services.